Year,Month,Day,Hour,Minute,Value (Times are PST for temperature in C)
2017,06,23,00,00,13.20
2017,06,23,00,01,13.20
2017,06,23,00,02,13.30
2017,06,23,00,03,13.30
2017,06,23,00,04,13.40
2017,06,23,00,05,13.40
2017,06,23,00,06,13.50
2017,06,23,00,07,13.50
2017,06,23,00,08,13.60
2017,06,23,00,09,13.60
2017,06,23,00,10,13.60
2017,06,23,00,11,13.60
2017,06,23,00,12,13.50
2017,06,23,00,13,13.60
2017,06,23,00,14,13.60
2017,06,23,00,15,13.60
2017,06,23,00,16,13.70
2017,06,23,00,17,13.60
2017,06,23,00,18,13.60
2017,06,23,00,19,13.60
2017,06,23,00,20,13.60
2017,06,23,00,21,13.60
2017,06,23,00,22,13.70
2017,06,23,00,23,13.60
2017,06,23,00,24,13.60
2017,06,23,00,25,13.60
2017,06,23,00,26,13.50
2017,06,23,00,27,13.50
2017,06,23,00,28,13.60
2017,06,23,00,29,13.60
2017,06,23,00,30,13.60
2017,06,23,00,31,13.50
2017,06,23,00,32,13.40
2017,06,23,00,33,13.40
2017,06,23,00,34,13.30
2017,06,23,00,35,13.20
2017,06,23,00,36,13.20
2017,06,23,00,37,13.20
2017,06,23,00,38,13.20
2017,06,23,00,39,13.20
2017,06,23,00,40,13.20
2017,06,23,00,41,13.20
2017,06,23,00,42,13.20
2017,06,23,00,43,13.10
2017,06,23,00,44,13.10
2017,06,23,00,45,13.10
2017,06,23,00,46,13.10
2017,06,23,00,47,13.00
2017,06,23,00,48,13.00
2017,06,23,00,49,13.00
2017,06,23,00,50,12.90
2017,06,23,00,51,12.90
2017,06,23,00,52,12.80
2017,06,23,00,53,12.80
2017,06,23,00,54,12.80
2017,06,23,00,55,12.80
2017,06,23,00,56,12.80
2017,06,23,00,57,12.80
2017,06,23,00,58,12.80
2017,06,23,00,59,12.80
2017,06,23,01,00,12.70
2017,06,23,01,01,12.70
2017,06,23,01,02,12.70
2017,06,23,01,03,12.70
2017,06,23,01,04,12.60
2017,06,23,01,05,12.60
2017,06,23,01,06,12.60
2017,06,23,01,07,12.50
2017,06,23,01,08,12.50
2017,06,23,01,09,12.40
2017,06,23,01,10,12.40
2017,06,23,01,11,12.40
2017,06,23,01,12,12.40
2017,06,23,01,13,12.30
2017,06,23,01,14,12.30
2017,06,23,01,15,12.30
2017,06,23,01,16,12.30
2017,06,23,01,17,12.30
2017,06,23,01,18,12.30
2017,06,23,01,19,12.30
2017,06,23,01,20,12.30
2017,06,23,01,21,12.30
2017,06,23,01,22,12.30
2017,06,23,01,23,12.30
2017,06,23,01,24,12.30
2017,06,23,01,25,12.40
2017,06,23,01,26,12.40
2017,06,23,01,27,12.40
2017,06,23,01,28,12.40
2017,06,23,01,29,12.40
2017,06,23,01,30,12.30
2017,06,23,01,31,12.30
2017,06,23,01,32,12.30
2017,06,23,01,33,12.30
2017,06,23,01,34,12.30
2017,06,23,01,35,12.20
2017,06,23,01,36,12.20
2017,06,23,01,37,12.20
2017,06,23,01,38,12.20
2017,06,23,01,39,12.20
2017,06,23,01,40,12.10
2017,06,23,01,41,12.10
2017,06,23,01,42,12.00
2017,06,23,01,43,12.00
2017,06,23,01,44,11.90
2017,06,23,01,45,11.90
2017,06,23,01,46,11.80
2017,06,23,01,47,11.80
2017,06,23,01,48,11.80
2017,06,23,01,49,11.80
2017,06,23,01,50,11.80
2017,06,23,01,51,11.70
2017,06,23,01,52,11.70
2017,06,23,01,53,11.70
2017,06,23,01,54,11.70
2017,06,23,01,55,11.70
2017,06,23,01,56,11.60
2017,06,23,01,57,11.60
2017,06,23,01,58,11.60
2017,06,23,01,59,11.60
2017,06,23,02,00,11.60
2017,06,23,02,01,11.60
2017,06,23,02,02,11.60
2017,06,23,02,03,11.60
2017,06,23,02,04,11.60
2017,06,23,02,05,11.60
2017,06,23,02,06,11.60
2017,06,23,02,07,11.60
2017,06,23,02,08,11.60
2017,06,23,02,09,11.60
2017,06,23,02,10,11.60
2017,06,23,02,11,11.60
2017,06,23,02,12,11.60
2017,06,23,02,13,11.50
2017,06,23,02,14,11.50
2017,06,23,02,15,11.50
2017,06,23,02,16,11.40
2017,06,23,02,17,11.40
2017,06,23,02,18,11.40
2017,06,23,02,19,11.40
2017,06,23,02,20,11.30
2017,06,23,02,21,11.30
2017,06,23,02,22,11.30
2017,06,23,02,23,11.30
2017,06,23,02,24,11.30
2017,06,23,02,25,11.40
2017,06,23,02,26,11.40
2017,06,23,02,27,11.50
2017,06,23,02,28,11.50
2017,06,23,02,29,11.60
2017,06,23,02,30,11.60
2017,06,23,02,31,11.60
2017,06,23,02,32,11.70
2017,06,23,02,33,11.70
2017,06,23,02,34,11.70
2017,06,23,02,35,11.70
2017,06,23,02,36,11.70
2017,06,23,02,37,11.70
2017,06,23,02,38,11.60
2017,06,23,02,39,11.60
2017,06,23,02,40,11.60
2017,06,23,02,41,11.60
2017,06,23,02,42,11.60
2017,06,23,02,43,11.60
2017,06,23,02,44,11.70
2017,06,23,02,45,11.80
2017,06,23,02,46,11.80
2017,06,23,02,47,11.70
2017,06,23,02,48,11.70
2017,06,23,02,49,11.60
2017,06,23,02,50,11.60
2017,06,23,02,51,11.60
2017,06,23,02,52,11.60
2017,06,23,02,53,11.60
2017,06,23,02,54,11.60
2017,06,23,02,55,11.70
2017,06,23,02,56,11.70
2017,06,23,02,57,11.70
2017,06,23,02,58,11.70
2017,06,23,02,59,11.80
2017,06,23,03,00,11.90
2017,06,23,03,01,11.90
2017,06,23,03,02,12.00
2017,06,23,03,03,12.00
2017,06,23,03,04,11.90
2017,06,23,03,05,11.90
2017,06,23,03,06,12.00
2017,06,23,03,07,12.00
2017,06,23,03,08,12.00
2017,06,23,03,09,12.10
2017,06,23,03,10,12.00
2017,06,23,03,11,12.00
2017,06,23,03,12,12.00
2017,06,23,03,13,11.90
2017,06,23,03,14,11.90
2017,06,23,03,15,11.90
2017,06,23,03,16,12.00
2017,06,23,03,17,12.00
2017,06,23,03,18,11.90
2017,06,23,03,19,11.90
2017,06,23,03,20,11.90
2017,06,23,03,21,11.90
2017,06,23,03,22,11.90
2017,06,23,03,23,12.00
2017,06,23,03,24,12.00
2017,06,23,03,25,12.00
2017,06,23,03,26,12.00
2017,06,23,03,27,12.00
2017,06,23,03,28,11.90
2017,06,23,03,29,11.90
2017,06,23,03,30,11.90
2017,06,23,03,31,11.90
2017,06,23,03,32,11.90
2017,06,23,03,33,11.90
2017,06,23,03,34,12.00
2017,06,23,03,35,12.00
2017,06,23,03,36,12.00
2017,06,23,03,37,12.00
2017,06,23,03,38,11.90
2017,06,23,03,39,11.90
2017,06,23,03,40,11.90
2017,06,23,03,41,11.80
2017,06,23,03,42,11.80
2017,06,23,03,43,11.80
2017,06,23,03,44,11.70
2017,06,23,03,45,11.70
2017,06,23,03,46,11.70
2017,06,23,03,47,11.60
2017,06,23,03,48,11.60
2017,06,23,03,49,11.60
2017,06,23,03,50,11.60
2017,06,23,03,51,11.50
2017,06,23,03,52,11.50
2017,06,23,03,53,11.40
2017,06,23,03,54,11.40
2017,06,23,03,55,11.40
2017,06,23,03,56,11.30
2017,06,23,03,57,11.30
2017,06,23,03,58,11.20
2017,06,23,03,59,11.20
2017,06,23,04,00,11.20
2017,06,23,04,01,11.20
2017,06,23,04,02,11.20
2017,06,23,04,03,11.30
2017,06,23,04,04,11.30
2017,06,23,04,05,11.30
2017,06,23,04,06,11.40
2017,06,23,04,07,11.50
2017,06,23,04,08,11.50
2017,06,23,04,09,11.60
2017,06,23,04,10,11.70
2017,06,23,04,11,11.70
2017,06,23,04,12,11.80
2017,06,23,04,13,11.80
2017,06,23,04,14,11.80
2017,06,23,04,15,11.80
2017,06,23,04,16,11.90
2017,06,23,04,17,11.90
2017,06,23,04,18,11.90
2017,06,23,04,19,11.90
2017,06,23,04,20,11.90
2017,06,23,04,21,11.90
2017,06,23,04,22,11.90
2017,06,23,04,23,11.80
2017,06,23,04,24,11.90
2017,06,23,04,25,11.90
2017,06,23,04,26,11.90
2017,06,23,04,27,11.90
2017,06,23,04,28,11.80
2017,06,23,04,29,11.80
2017,06,23,04,30,11.80
2017,06,23,04,31,11.80
2017,06,23,04,32,11.70
2017,06,23,04,33,11.70
2017,06,23,04,34,11.60
2017,06,23,04,35,11.60
2017,06,23,04,36,11.60
2017,06,23,04,37,11.50
2017,06,23,04,38,11.40
2017,06,23,04,39,11.40
2017,06,23,04,40,11.40
2017,06,23,04,41,11.50
2017,06,23,04,42,11.50
2017,06,23,04,43,11.60
2017,06,23,04,44,11.60
2017,06,23,04,45,11.60
2017,06,23,04,46,11.50
2017,06,23,04,47,11.50
2017,06,23,04,48,11.50
2017,06,23,04,49,11.40
2017,06,23,04,50,11.40
2017,06,23,04,51,11.30
2017,06,23,04,52,11.30
2017,06,23,04,53,11.30
2017,06,23,04,54,11.20
2017,06,23,04,55,11.20
2017,06,23,04,56,11.20
2017,06,23,04,57,11.30
2017,06,23,04,58,11.20
2017,06,23,04,59,11.20
2017,06,23,05,00,11.20
2017,06,23,05,01,11.20
2017,06,23,05,02,11.20
2017,06,23,05,03,11.20
2017,06,23,05,04,11.20
2017,06,23,05,05,11.20
2017,06,23,05,06,11.20
2017,06,23,05,07,11.10
2017,06,23,05,08,11.10
2017,06,23,05,09,11.10
2017,06,23,05,10,11.10
2017,06,23,05,11,11.00
2017,06,23,05,12,11.00
2017,06,23,05,13,11.00
2017,06,23,05,14,10.90
2017,06,23,05,15,11.00
2017,06,23,05,16,11.00
2017,06,23,05,17,11.00
2017,06,23,05,18,11.00
2017,06,23,05,19,11.10
2017,06,23,05,20,11.00
2017,06,23,05,21,11.10
2017,06,23,05,22,11.10
2017,06,23,05,23,11.10
2017,06,23,05,24,11.10
2017,06,23,05,25,11.00
2017,06,23,05,26,11.00
2017,06,23,05,27,11.00
2017,06,23,05,28,11.00
2017,06,23,05,29,11.00
2017,06,23,05,30,10.90
2017,06,23,05,31,10.90
2017,06,23,05,32,10.90
2017,06,23,05,33,10.90
2017,06,23,05,34,10.80
2017,06,23,05,35,10.90
2017,06,23,05,36,10.90
2017,06,23,05,37,10.90
2017,06,23,05,38,10.90
2017,06,23,05,39,10.90
2017,06,23,05,40,11.00
2017,06,23,05,41,11.00
2017,06,23,05,42,11.00
2017,06,23,05,43,11.00
2017,06,23,05,44,11.00
2017,06,23,05,45,10.90
2017,06,23,05,46,10.90
2017,06,23,05,47,10.90
2017,06,23,05,48,10.90
2017,06,23,05,49,10.90
2017,06,23,05,50,10.90
2017,06,23,05,51,10.90
2017,06,23,05,52,11.00
2017,06,23,05,53,11.00
2017,06,23,05,54,11.00
2017,06,23,05,55,11.00
2017,06,23,05,56,11.00
2017,06,23,05,57,11.00
2017,06,23,05,58,11.10
2017,06,23,05,59,11.10
2017,06,23,06,00,11.10
2017,06,23,06,01,11.10
2017,06,23,06,02,11.10
2017,06,23,06,03,11.10
2017,06,23,06,04,11.10
2017,06,23,06,05,11.10
2017,06,23,06,06,11.10
2017,06,23,06,07,11.20
2017,06,23,06,08,11.20
2017,06,23,06,09,11.20
2017,06,23,06,10,11.20
2017,06,23,06,11,11.20
2017,06,23,06,12,11.20
2017,06,23,06,13,11.20
2017,06,23,06,14,11.20
2017,06,23,06,15,11.20
2017,06,23,06,16,11.20
2017,06,23,06,17,11.30
2017,06,23,06,18,11.30
2017,06,23,06,19,11.30
2017,06,23,06,20,11.30
2017,06,23,06,21,11.30
2017,06,23,06,22,11.30
2017,06,23,06,23,11.30
2017,06,23,06,24,11.30
2017,06,23,06,25,11.40
2017,06,23,06,26,11.40
2017,06,23,06,27,11.40
2017,06,23,06,28,11.40
2017,06,23,06,29,11.50
2017,06,23,06,30,11.50
2017,06,23,06,31,11.50
2017,06,23,06,32,11.60
2017,06,23,06,33,11.60
2017,06,23,06,34,11.60
2017,06,23,06,35,11.70
2017,06,23,06,36,11.70
2017,06,23,06,37,11.70
2017,06,23,06,38,11.70
2017,06,23,06,39,11.80
2017,06,23,06,40,11.80
2017,06,23,06,41,11.80
2017,06,23,06,42,11.90
2017,06,23,06,43,11.90
2017,06,23,06,44,12.00
2017,06,23,06,45,12.00
2017,06,23,06,46,12.10
2017,06,23,06,47,12.10
2017,06,23,06,48,12.20
2017,06,23,06,49,12.20
2017,06,23,06,50,12.30
2017,06,23,06,51,12.30
2017,06,23,06,52,12.40
2017,06,23,06,53,12.40
2017,06,23,06,54,12.40
2017,06,23,06,55,12.50
2017,06,23,06,56,12.60
2017,06,23,06,57,12.60
2017,06,23,06,58,12.70
2017,06,23,06,59,12.70
2017,06,23,07,00,12.80
2017,06,23,07,01,12.90
2017,06,23,07,02,12.90
2017,06,23,07,03,13.00
2017,06,23,07,04,13.00
2017,06,23,07,05,13.10
2017,06,23,07,06,13.10
2017,06,23,07,07,13.20
2017,06,23,07,08,13.20
2017,06,23,07,09,13.30
2017,06,23,07,10,13.30
2017,06,23,07,11,13.40
2017,06,23,07,12,13.50
2017,06,23,07,13,13.60
2017,06,23,07,14,13.70
2017,06,23,07,15,13.80
2017,06,23,07,16,13.90
2017,06,23,07,17,14.00
2017,06,23,07,18,14.10
2017,06,23,07,19,14.20
2017,06,23,07,20,14.30
2017,06,23,07,21,14.40
2017,06,23,07,22,14.50
2017,06,23,07,23,14.50
2017,06,23,07,24,14.60
2017,06,23,07,25,14.60
2017,06,23,07,26,14.70
2017,06,23,07,27,14.70
2017,06,23,07,28,14.80
2017,06,23,07,29,14.90
2017,06,23,07,30,15.00
2017,06,23,07,31,15.10
2017,06,23,07,32,15.10
2017,06,23,07,33,15.20
2017,06,23,07,34,15.20
2017,06,23,07,35,15.20
2017,06,23,07,36,15.20
2017,06,23,07,37,15.20
2017,06,23,07,38,15.30
2017,06,23,07,39,15.30
2017,06,23,07,40,15.30
2017,06,23,07,41,15.40
2017,06,23,07,42,15.40
2017,06,23,07,43,15.50
2017,06,23,07,44,15.50
2017,06,23,07,45,15.60
2017,06,23,07,46,15.60
2017,06,23,07,47,15.60
2017,06,23,07,48,15.70
2017,06,23,07,49,15.80
2017,06,23,07,50,15.80
2017,06,23,07,51,15.90
2017,06,23,07,52,15.90
2017,06,23,07,53,15.90
2017,06,23,07,54,15.90
2017,06,23,07,55,15.90
2017,06,23,07,56,15.80
2017,06,23,07,57,15.80
2017,06,23,07,58,15.90
2017,06,23,07,59,15.90
2017,06,23,08,00,15.80
2017,06,23,08,01,15.80
2017,06,23,08,02,15.80
2017,06,23,08,03,15.80
2017,06,23,08,04,15.80
2017,06,23,08,05,15.80
2017,06,23,08,06,15.90
2017,06,23,08,07,15.90
2017,06,23,08,08,15.90
2017,06,23,08,09,15.90
2017,06,23,08,10,16.00
2017,06,23,08,11,16.00
2017,06,23,08,12,16.10
2017,06,23,08,13,16.10
2017,06,23,08,14,16.20
2017,06,23,08,15,16.30
2017,06,23,08,16,16.30
2017,06,23,08,17,16.30
2017,06,23,08,18,16.40
2017,06,23,08,19,16.40
2017,06,23,08,20,16.40
2017,06,23,08,21,16.40
2017,06,23,08,22,16.40
2017,06,23,08,23,16.40
2017,06,23,08,24,16.40
2017,06,23,08,25,16.50
2017,06,23,08,26,16.50
2017,06,23,08,27,16.60
2017,06,23,08,28,16.60
2017,06,23,08,29,16.60
2017,06,23,08,30,16.60
2017,06,23,08,31,16.60
2017,06,23,08,32,16.60
2017,06,23,08,33,16.60
2017,06,23,08,34,16.60
2017,06,23,08,35,16.60
2017,06,23,08,36,16.50
2017,06,23,08,37,16.50
2017,06,23,08,38,16.40
2017,06,23,08,39,16.40
2017,06,23,08,40,16.50
2017,06,23,08,41,16.60
2017,06,23,08,42,16.70
2017,06,23,08,43,16.80
2017,06,23,08,44,16.80
2017,06,23,08,45,16.90
2017,06,23,08,46,16.90
2017,06,23,08,47,16.90
2017,06,23,08,48,16.90
2017,06,23,08,49,16.90
2017,06,23,08,50,16.80
2017,06,23,08,51,16.70
2017,06,23,08,52,16.70
2017,06,23,08,53,16.70
2017,06,23,08,54,16.70
2017,06,23,08,55,16.70
2017,06,23,08,56,16.80
2017,06,23,08,57,16.80
2017,06,23,08,58,16.80
2017,06,23,08,59,16.70
2017,06,23,09,00,16.60
2017,06,23,09,01,16.50
2017,06,23,09,02,16.50
2017,06,23,09,03,16.50
2017,06,23,09,04,16.60
2017,06,23,09,05,16.60
2017,06,23,09,06,16.70
2017,06,23,09,07,16.70
2017,06,23,09,08,16.70
2017,06,23,09,09,16.60
2017,06,23,09,10,16.60
2017,06,23,09,11,16.60
2017,06,23,09,12,16.60
2017,06,23,09,13,16.50
2017,06,23,09,14,16.40
2017,06,23,09,15,16.40
2017,06,23,09,16,16.40
2017,06,23,09,17,16.40
2017,06,23,09,18,16.50
2017,06,23,09,19,16.50
2017,06,23,09,20,16.60
2017,06,23,09,21,16.60
2017,06,23,09,22,16.70
2017,06,23,09,23,16.70
2017,06,23,09,24,16.80
2017,06,23,09,25,16.80
2017,06,23,09,26,16.80
2017,06,23,09,27,16.90
2017,06,23,09,28,16.90
2017,06,23,09,29,17.00
2017,06,23,09,30,17.10
2017,06,23,09,31,17.10
2017,06,23,09,32,17.10
2017,06,23,09,33,17.10
2017,06,23,09,34,17.10
2017,06,23,09,35,17.10
2017,06,23,09,36,17.10
2017,06,23,09,37,17.10
2017,06,23,09,38,17.10
2017,06,23,09,39,17.10
2017,06,23,09,40,17.20
2017,06,23,09,41,17.20
2017,06,23,09,42,17.30
2017,06,23,09,43,17.40
2017,06,23,09,44,17.50
2017,06,23,09,45,17.50
2017,06,23,09,46,17.60
2017,06,23,09,47,17.60
2017,06,23,09,48,17.60
2017,06,23,09,49,17.60
2017,06,23,09,50,17.70
2017,06,23,09,51,17.70
2017,06,23,09,52,17.70
2017,06,23,09,53,17.80
2017,06,23,09,54,17.70
2017,06,23,09,55,17.70
2017,06,23,09,56,17.60
2017,06,23,09,57,17.60
2017,06,23,09,58,17.50
2017,06,23,09,59,17.50
2017,06,23,10,00,17.50
2017,06,23,10,01,17.50
2017,06,23,10,02,17.50
2017,06,23,10,03,17.50
2017,06,23,10,04,17.50
2017,06,23,10,05,17.50
2017,06,23,10,06,17.60
2017,06,23,10,07,17.60
2017,06,23,10,08,17.60
2017,06,23,10,09,17.50
2017,06,23,10,10,17.50
2017,06,23,10,11,17.40
2017,06,23,10,12,17.40
2017,06,23,10,13,17.40
2017,06,23,10,14,17.40
2017,06,23,10,15,17.40
2017,06,23,10,16,17.40
2017,06,23,10,17,17.50
2017,06,23,10,18,17.60
2017,06,23,10,19,17.50
2017,06,23,10,20,17.50
2017,06,23,10,21,17.40
2017,06,23,10,22,17.40
2017,06,23,10,23,17.50
2017,06,23,10,24,17.50
2017,06,23,10,25,17.50
2017,06,23,10,26,17.60
2017,06,23,10,27,17.60
2017,06,23,10,28,17.60
2017,06,23,10,29,17.60
2017,06,23,10,30,17.60
2017,06,23,10,31,17.70
2017,06,23,10,32,17.70
2017,06,23,10,33,17.80
2017,06,23,10,34,17.80
2017,06,23,10,35,17.80
2017,06,23,10,36,17.80
2017,06,23,10,37,17.90
2017,06,23,10,38,17.90
2017,06,23,10,39,17.90
2017,06,23,10,40,17.90
2017,06,23,10,41,17.90
2017,06,23,10,42,17.80
2017,06,23,10,43,17.90
2017,06,23,10,44,17.90
2017,06,23,10,45,17.90
2017,06,23,10,46,17.90
2017,06,23,10,47,17.90
2017,06,23,10,48,17.90
2017,06,23,10,49,18.00
2017,06,23,10,50,18.10
2017,06,23,10,51,18.20
2017,06,23,10,52,18.20
2017,06,23,10,53,18.20
2017,06,23,10,54,18.30
2017,06,23,10,55,18.30
2017,06,23,10,56,18.30
2017,06,23,10,57,18.20
2017,06,23,10,58,18.10
2017,06,23,10,59,18.10
2017,06,23,11,00,18.00
2017,06,23,11,01,18.10
2017,06,23,11,02,18.10
2017,06,23,11,03,18.20
2017,06,23,11,04,18.30
2017,06,23,11,05,18.30
2017,06,23,11,06,18.30
2017,06,23,11,07,18.30
2017,06,23,11,08,18.30
2017,06,23,11,09,18.20
2017,06,23,11,10,18.20
2017,06,23,11,11,18.20
2017,06,23,11,12,18.20
2017,06,23,11,13,18.10
2017,06,23,11,14,18.10
2017,06,23,11,15,18.20
2017,06,23,11,16,18.20
2017,06,23,11,17,18.30
2017,06,23,11,18,18.30
2017,06,23,11,19,18.30
2017,06,23,11,20,18.40
2017,06,23,11,21,18.40
2017,06,23,11,22,18.50
2017,06,23,11,23,18.50
2017,06,23,11,24,18.50
2017,06,23,11,25,18.60
2017,06,23,11,26,18.60
2017,06,23,11,27,18.70
2017,06,23,11,28,18.70
2017,06,23,11,29,18.70
2017,06,23,11,30,18.70
2017,06,23,11,31,18.70
2017,06,23,11,32,18.70
2017,06,23,11,33,18.80
2017,06,23,11,34,18.80
2017,06,23,11,35,18.80
2017,06,23,11,36,18.70
2017,06,23,11,37,18.60
2017,06,23,11,38,18.50
2017,06,23,11,39,18.60
2017,06,23,11,40,18.50
2017,06,23,11,41,18.50
2017,06,23,11,42,18.40
2017,06,23,11,43,18.40
2017,06,23,11,44,18.40
2017,06,23,11,45,18.50
2017,06,23,11,46,18.60
2017,06,23,11,47,18.60
2017,06,23,11,48,18.70
2017,06,23,11,49,18.70
2017,06,23,11,50,18.70
2017,06,23,11,51,18.60
2017,06,23,11,52,18.60
2017,06,23,11,53,18.70
2017,06,23,11,54,18.70
2017,06,23,11,55,18.80
2017,06,23,11,56,18.80
2017,06,23,11,57,18.80
2017,06,23,11,58,18.80
2017,06,23,11,59,18.90
2017,06,23,12,00,19.00
2017,06,23,12,01,19.10
2017,06,23,12,02,19.20
2017,06,23,12,03,19.30
2017,06,23,12,04,19.40
2017,06,23,12,05,19.40
2017,06,23,12,06,19.50
2017,06,23,12,07,19.40
2017,06,23,12,08,19.30
2017,06,23,12,09,19.20
2017,06,23,12,10,19.20
2017,06,23,12,11,19.20
2017,06,23,12,12,19.10
2017,06,23,12,13,18.90
2017,06,23,12,14,18.90
2017,06,23,12,15,18.80
2017,06,23,12,16,18.90
2017,06,23,12,17,18.90
2017,06,23,12,18,19.00
2017,06,23,12,19,19.10
2017,06,23,12,20,19.10
2017,06,23,12,21,19.10
2017,06,23,12,22,19.30
2017,06,23,12,23,19.40
2017,06,23,12,24,19.40
2017,06,23,12,25,19.60
2017,06,23,12,26,19.70
2017,06,23,12,27,19.70
2017,06,23,12,28,19.70
2017,06,23,12,29,19.80
2017,06,23,12,30,19.90
2017,06,23,12,31,19.90
2017,06,23,12,32,20.10
2017,06,23,12,33,20.10
2017,06,23,12,34,20.20
2017,06,23,12,35,20.10
2017,06,23,12,36,20.10
2017,06,23,12,37,20.00
2017,06,23,12,38,20.00
2017,06,23,12,39,19.90
2017,06,23,12,40,19.90
2017,06,23,12,41,19.90
2017,06,23,12,42,19.90
2017,06,23,12,43,20.00
2017,06,23,12,44,20.10
2017,06,23,12,45,20.10
2017,06,23,12,46,20.00
2017,06,23,12,47,19.90
2017,06,23,12,48,19.90
2017,06,23,12,49,19.90
2017,06,23,12,50,20.00
2017,06,23,12,51,20.00
2017,06,23,12,52,20.10
2017,06,23,12,53,20.00
2017,06,23,12,54,19.90
2017,06,23,12,55,20.00
2017,06,23,12,56,20.10
2017,06,23,12,57,20.20
2017,06,23,12,58,20.30
2017,06,23,12,59,20.30
2017,06,23,13,00,20.30
2017,06,23,13,01,20.10
2017,06,23,13,02,20.10
2017,06,23,13,03,20.10
2017,06,23,13,04,20.20
2017,06,23,13,05,20.10
2017,06,23,13,06,20.10
2017,06,23,13,07,20.10
2017,06,23,13,08,20.20
2017,06,23,13,09,20.30
2017,06,23,13,10,20.30
2017,06,23,13,11,20.30
2017,06,23,13,12,20.30
2017,06,23,13,13,20.40
2017,06,23,13,14,20.40
2017,06,23,13,15,20.40
2017,06,23,13,16,20.30
2017,06,23,13,17,20.30
2017,06,23,13,18,20.30
2017,06,23,13,19,20.30
2017,06,23,13,20,20.30
2017,06,23,13,21,20.30
2017,06,23,13,22,20.30
2017,06,23,13,23,20.40
2017,06,23,13,24,20.40
2017,06,23,13,25,20.30
2017,06,23,13,26,20.20
2017,06,23,13,27,20.30
2017,06,23,13,28,20.30
2017,06,23,13,29,20.40
2017,06,23,13,30,20.40
2017,06,23,13,31,20.40
2017,06,23,13,32,20.40
2017,06,23,13,33,20.50
2017,06,23,13,34,20.50
2017,06,23,13,35,20.60
2017,06,23,13,36,20.70
2017,06,23,13,37,20.80
2017,06,23,13,38,20.90
2017,06,23,13,39,20.90
2017,06,23,13,40,21.10
2017,06,23,13,41,21.10
2017,06,23,13,42,21.20
2017,06,23,13,43,21.30
2017,06,23,13,44,21.20
2017,06,23,13,45,21.20
2017,06,23,13,46,21.10
2017,06,23,13,47,21.10
2017,06,23,13,48,21.10
2017,06,23,13,49,21.20
2017,06,23,13,50,21.20
2017,06,23,13,51,21.20
2017,06,23,13,52,21.30
2017,06,23,13,53,21.40
2017,06,23,13,54,21.50
2017,06,23,13,55,21.60
2017,06,23,13,56,21.50
2017,06,23,13,57,21.40
2017,06,23,13,58,21.40
2017,06,23,13,59,21.30
2017,06,23,14,00,21.40
2017,06,23,14,01,21.40
2017,06,23,14,02,21.50
2017,06,23,14,03,21.70
2017,06,23,14,04,21.70
2017,06,23,14,05,21.70
2017,06,23,14,06,21.70
2017,06,23,14,07,21.70
2017,06,23,14,08,21.60
2017,06,23,14,09,21.50
2017,06,23,14,10,21.50
2017,06,23,14,11,21.50
2017,06,23,14,12,21.50
2017,06,23,14,13,21.50
2017,06,23,14,14,21.60
2017,06,23,14,15,21.60
2017,06,23,14,16,21.60
2017,06,23,14,17,21.70
2017,06,23,14,18,21.80
2017,06,23,14,19,21.90
2017,06,23,14,20,22.10
2017,06,23,14,21,22.20
2017,06,23,14,22,22.30
2017,06,23,14,23,22.30
2017,06,23,14,24,22.40
2017,06,23,14,25,22.40
2017,06,23,14,26,22.30
2017,06,23,14,27,22.30
2017,06,23,14,28,22.20
2017,06,23,14,29,22.20
2017,06,23,14,30,22.20
2017,06,23,14,31,22.20
2017,06,23,14,32,22.20
2017,06,23,14,33,22.30
2017,06,23,14,34,22.40
2017,06,23,14,35,22.40
2017,06,23,14,36,22.60
2017,06,23,14,37,22.80
2017,06,23,14,38,22.90
2017,06,23,14,39,22.90
2017,06,23,14,40,22.90
2017,06,23,14,41,22.90
2017,06,23,14,42,22.90
2017,06,23,14,43,22.90
2017,06,23,14,44,22.90
2017,06,23,14,45,22.90
2017,06,23,14,46,22.80
2017,06,23,14,47,22.90
2017,06,23,14,48,22.90
2017,06,23,14,49,23.00
2017,06,23,14,50,23.00
2017,06,23,14,51,23.00
2017,06,23,14,52,23.00
2017,06,23,14,53,23.00
2017,06,23,14,54,23.10
2017,06,23,14,55,23.20
2017,06,23,14,56,23.30
2017,06,23,14,57,23.40
2017,06,23,14,58,23.40
2017,06,23,14,59,23.40
2017,06,23,15,00,23.50
2017,06,23,15,01,23.60
2017,06,23,15,02,23.60
2017,06,23,15,03,23.60
2017,06,23,15,04,23.60
2017,06,23,15,05,23.70
2017,06,23,15,06,23.80
2017,06,23,15,07,23.90
2017,06,23,15,08,23.90
2017,06,23,15,09,24.00
2017,06,23,15,10,24.00
2017,06,23,15,11,24.00
2017,06,23,15,12,24.10
2017,06,23,15,13,24.10
2017,06,23,15,14,24.10
2017,06,23,15,15,24.10
2017,06,23,15,16,24.10
2017,06,23,15,17,24.20
2017,06,23,15,18,24.20
2017,06,23,15,19,24.30
2017,06,23,15,20,24.30
2017,06,23,15,21,24.40
2017,06,23,15,22,24.30
2017,06,23,15,23,24.30
2017,06,23,15,24,24.30
2017,06,23,15,25,24.30
2017,06,23,15,26,24.30
2017,06,23,15,27,24.20
2017,06,23,15,28,24.10
2017,06,23,15,29,24.10
2017,06,23,15,30,24.00
2017,06,23,15,31,24.00
2017,06,23,15,32,23.90
2017,06,23,15,33,24.00
2017,06,23,15,34,24.10
2017,06,23,15,35,24.30
2017,06,23,15,36,24.40
2017,06,23,15,37,24.50
2017,06,23,15,38,24.60
2017,06,23,15,39,24.70
2017,06,23,15,40,24.80
2017,06,23,15,41,24.90
2017,06,23,15,42,24.90
2017,06,23,15,43,24.80
2017,06,23,15,44,24.90
2017,06,23,15,45,25.00
2017,06,23,15,46,25.10
2017,06,23,15,47,25.00
2017,06,23,15,48,24.90
2017,06,23,15,49,24.70
2017,06,23,15,50,24.60
2017,06,23,15,51,24.50
2017,06,23,15,52,24.60
2017,06,23,15,53,24.60
2017,06,23,15,54,24.80
2017,06,23,15,55,24.90
2017,06,23,15,56,24.90
2017,06,23,15,57,25.00
2017,06,23,15,58,24.90
2017,06,23,15,59,24.90
2017,06,23,16,00,24.90
2017,06,23,16,01,24.90
2017,06,23,16,02,24.90
2017,06,23,16,03,24.90
2017,06,23,16,04,24.80
2017,06,23,16,05,24.80
2017,06,23,16,06,24.80
2017,06,23,16,07,24.80
2017,06,23,16,08,24.80
2017,06,23,16,09,24.80
2017,06,23,16,10,24.80
2017,06,23,16,11,24.80
2017,06,23,16,12,24.80
2017,06,23,16,13,24.80
2017,06,23,16,14,24.90
2017,06,23,16,15,25.00
2017,06,23,16,16,25.00
2017,06,23,16,17,25.00
2017,06,23,16,18,25.00
2017,06,23,16,19,25.00
2017,06,23,16,20,25.10
2017,06,23,16,21,25.10
2017,06,23,16,22,25.00
2017,06,23,16,23,25.00
2017,06,23,16,24,25.00
2017,06,23,16,25,25.10
2017,06,23,16,26,25.10
2017,06,23,16,27,25.10
2017,06,23,16,28,25.10
2017,06,23,16,29,25.10
2017,06,23,16,30,25.10
2017,06,23,16,31,25.10
2017,06,23,16,32,25.10
2017,06,23,16,33,25.20
2017,06,23,16,34,25.40
2017,06,23,16,35,25.40
2017,06,23,16,36,25.40
2017,06,23,16,37,25.40
2017,06,23,16,38,25.40
2017,06,23,16,39,25.40
2017,06,23,16,40,25.50
2017,06,23,16,41,25.70
2017,06,23,16,42,25.80
2017,06,23,16,43,25.90
2017,06,23,16,44,25.90
2017,06,23,16,45,25.90
2017,06,23,16,46,25.90
2017,06,23,16,47,25.90
2017,06,23,16,48,25.80
2017,06,23,16,49,25.60
2017,06,23,16,50,25.50
2017,06,23,16,51,25.40
2017,06,23,16,52,25.40
2017,06,23,16,53,25.40
2017,06,23,16,54,25.50
2017,06,23,16,55,25.50
2017,06,23,16,56,25.60
2017,06,23,16,57,25.70
2017,06,23,16,58,25.80
2017,06,23,16,59,25.90
2017,06,23,17,00,25.90
2017,06,23,17,01,25.90
2017,06,23,17,02,25.90
2017,06,23,17,03,25.90
2017,06,23,17,04,25.90
2017,06,23,17,05,25.80
2017,06,23,17,06,25.80
2017,06,23,17,07,25.80
2017,06,23,17,08,25.80
2017,06,23,17,09,25.80
2017,06,23,17,10,25.80
2017,06,23,17,11,25.70
2017,06,23,17,12,25.70
2017,06,23,17,13,25.70
2017,06,23,17,14,25.70
2017,06,23,17,15,25.80
2017,06,23,17,16,25.70
2017,06,23,17,17,25.60
2017,06,23,17,18,25.60
2017,06,23,17,19,25.70